Reading, PA

12:36 PM EDT on June 26, 2017 (GMT -0400)
Reading Regional-Spaatz

Weather History for KRDG - October, 2012

Change the Weather History Date:

Wednesday, October 31, 2012

  Actual Average Record
Temperature  
Mean Temperature 44 °F 49 °F  
Max Temperature 46 °F 60 °F 81 °F (1946)
Min Temperature 41 °F 39 °F 23 °F (1988)
Degree Days  
Heating Degree Days 21 16  
Month to date heating degree days 277 361  
Since 1 July heating degree days 337 438  
Cooling Degree Days 0 0  
Month to date cooling degree days 10 9  
Year to date cooling degree days 1281 896  
Moisture  
Dew Point 37 °F    
Average Humidity 73    
Maximum Humidity 76    
Minimum Humidity 70    
Precipitation  
Precipitation 0.00 in 0.07 in 1.31 in (1939)
Month to date precipitation 8.23 3.22  
Year to date precipitation 35.02 36.52  
Snow  
Snow 0.00 in - - ()
Month to date snowfall 0.0  
Snow Depth 0.00 in    
Sea Level Pressure  
Sea Level Pressure 29.53 in    
Wind  
Wind Speed 8 mph (SW)    
Max Wind Speed 13 mph    
Max Gust Speed -    
Visibility 11 miles    
Events      
T = Trace of Precipitation, MM = Missing Value Source: NWS Daily Summary

Daily Weather History Graph

Daily Weather History Graph

Search for Another Location

Airport or City:

Trip Planner

Search our weather history database for the weather conditions in past years. The results will help you decide how hot, cold, wet, or windy it might be!

Date:

Astronomy

Oct. 31, 2012 Rise Set
Actual Time 7:32 AM EDT 6:01 PM EDT
Civil Twilight 7:04 AM EDT 6:29 PM EDT
Nautical Twilight 6:32 AM EDT 7:01 PM EDT
Astronomical Twilight 6:00 AM EDT 7:33 PM EDT
Moon 7:10 PM EDT (10/31) 9:12 AM EDT (10/31)
Length of Visible Light 11h 24m
Length of Day
10h 28m
Full, 97% of the Moon is Illuminated
Oct 31
Full
Nov 6
Last Quarter
Nov 13
New
Nov 20
First Quarter
Nov 28
Full

Hourly Weather History & Observations

Time (EDT) Temp. Windchill Dew Point Humidity Pressure Visibility Wind Dir Wind Speed Gust Speed Precip Events Conditions
12:54 AM - - - N/A% 29.45 in - North - - N/A   Unknown
1:54 AM - - - N/A% 29.44 in - North - - N/A   Unknown
2:54 AM - - - N/A% 29.45 in - North - - N/A   Unknown
3:54 AM - - - N/A% 29.46 in - North - - N/A   Unknown
4:54 AM - - - N/A% 29.47 in - North - - N/A   Unknown
5:54 AM - - - N/A% 29.49 in - North - - N/A   Unknown
5:58 AM 41.0 °F 38.0 °F 37.4 °F 87% 29.48 in 10.0 mi SSW 4.6 mph - N/A   Overcast
6:54 AM - - - N/A% 29.49 in - North - - N/A   Unknown
7:00 AM 41.0 °F 35.2 °F 37.4 °F 87% 29.49 in 10.0 mi SSW 9.2 mph - N/A   Mostly Cloudy
7:54 AM - - - N/A% 29.51 in - North - - N/A   Unknown
7:57 AM 41.0 °F 38.0 °F 37.4 °F 87% 29.51 in 10.0 mi SSW 4.6 mph - N/A   Overcast
8:54 AM - - - N/A% 29.51 in - North - - N/A   Unknown
8:55 AM 41.0 °F 35.8 °F 37.4 °F 87% 29.52 in 10.0 mi South 8.1 mph - N/A   Overcast
9:54 AM - - - N/A% 29.52 in - North - - N/A   Unknown
9:55 AM 42.8 °F 38.6 °F 37.4 °F 81% 29.53 in 10.0 mi SSW 6.9 mph - N/A   Overcast
10:54 AM - - - N/A% 29.52 in - North - - N/A   Unknown
10:55 AM 44.6 °F 40.2 °F 37.4 °F 76% 29.52 in 10.0 mi SSW 8.1 mph - N/A   Overcast
11:50 AM 44.6 °F 38.4 °F 37.4 °F 76% 29.53 in 10.0 mi SSW 12.7 mph - N/A   Overcast
11:54 AM - - - N/A% 29.53 in - North - - N/A   Unknown
12:54 PM - - - N/A% 29.54 in - North - - N/A   Unknown
1:54 PM - - - N/A% 29.54 in - North - - N/A   Unknown
1:55 PM 44.6 °F 40.2 °F 37.4 °F 76% 29.53 in 10.0 mi SW 8.1 mph - N/A   Mostly Cloudy
2:50 PM 46.4 °F 42.4 °F 39.2 °F 76% 29.54 in 10.0 mi WSW 8.1 mph - N/A   Mostly Cloudy
2:54 PM - - - N/A% 29.53 in - North - - N/A   Unknown
3:52 PM 44.6 °F 39.7 °F 37.4 °F 76% 29.53 in 20.0 mi WSW 9.2 mph - N/A   Overcast
3:54 PM - - - N/A% 29.54 in - North - - N/A   Unknown
4:50 PM 46.4 °F 41.5 °F 37.4 °F 71% 29.54 in 20.0 mi WSW 10.4 mph - N/A   Overcast
4:54 PM - - - N/A% 29.55 in - North - - N/A   Unknown
5:54 PM - - - N/A% 29.56 in - North - - N/A   Unknown
5:55 PM 44.6 °F 42.2 °F 37.4 °F 76% 29.56 in 10.0 mi WSW 4.6 mph - N/A   Overcast
6:51 PM 44.6 °F 42.2 °F 37.4 °F 76% 29.57 in 10.0 mi SW 4.6 mph - N/A   Overcast
6:54 PM - - - N/A% 29.58 in - North - - N/A   Unknown
7:51 PM 44.6 °F 42.2 °F 35.6 °F 71% 29.58 in 10.0 mi SSW 4.6 mph - N/A   Overcast
7:54 PM - - - N/A% 29.58 in - North - - N/A   Unknown
9:54 PM - - - N/A% 29.59 in - North - - N/A   Unknown
10:54 PM - - - N/A% 29.59 in - North - - N/A   Unknown
11:54 PM - - - N/A% 29.59 in - North - - N/A   Unknown